Lakeville, MN

6:45 PM CDT on September 25, 2017 (GMT -0500)
Airlake

Weather History for KLVN - February, 2013

Change the Weather History Date:

Saturday, February 23, 2013

  Actual Average Record
Temperature  
Mean Temperature 14 °F -  
Max Temperature 24 °F 32 °F 55 °F (1958)
Min Temperature 3 °F 14 °F -16 °F (2015)
Degree Days  
Heating Degree Days 52    
Moisture  
Dew Point 14 °F    
Average Humidity 89    
Maximum Humidity 100    
Minimum Humidity 74    
Precipitation  
Precipitation 0.00 in - - ()
Sea Level Pressure  
Sea Level Pressure 29.87 in    
Wind  
Wind Speed 5 mph (WSW)    
Max Wind Speed 9 mph    
Max Gust Speed -    
Visibility 8 miles    
Events Snow    
Averages and records for this station are not official NWS values.
T = Trace of Precipitation, MM = Missing Value Source: NWS Daily Summary

Daily Weather History Graph

Daily Weather History Graph

Search for Another Location

Airport or City:

Trip Planner

Search our weather history database for the weather conditions in past years. The results will help you decide how hot, cold, wet, or windy it might be!

Date:

Astronomy

Feb. 23, 2013 Rise Set
Actual Time 7:00 AM CST 5:53 PM CST
Civil Twilight 6:30 AM CST 6:22 PM CST
Nautical Twilight 5:56 AM CST 6:56 PM CST
Astronomical Twilight 5:23 AM CST 7:30 PM CST
Moon 4:01 PM CST (2/23) 5:26 AM CST (2/23)
Length of Visible Light 11h 51m
Length of Day
10h 52m
Waxing Gibbous, 95% of the Moon is Illuminated
Feb 23
Waxing Gibbous
Feb 25
Full
Mar 4
Last Quarter
Mar 11
New
Mar 19
First Quarter

Hourly Weather History & Observations

Time (CST) Temp. Windchill Dew Point Humidity Pressure Visibility Wind Dir Wind Speed Gust Speed Precip Events Conditions
12:06 AM 19.4 °F 12.8 °F 17.6 °F 93% 29.86 in 7.0 mi West 4.6 mph - N/A Snow Light Snow
12:27 AM 17.6 °F 10.7 °F 15.8 °F 93% 29.85 in 5.0 mi WSW 4.6 mph - N/A Snow Light Snow
12:46 AM 17.6 °F 7.3 °F 15.8 °F 93% 29.85 in 5.0 mi WSW 8.1 mph - N/A Snow Light Snow
1:06 AM 17.6 °F 7.3 °F 15.8 °F 93% 29.85 in 7.0 mi WSW 8.1 mph - N/A Snow Light Snow
1:27 AM 17.6 °F 8.2 °F 15.8 °F 93% 29.85 in 7.0 mi WSW 6.9 mph - N/A Snow Light Snow
1:46 AM 17.6 °F 8.2 °F 15.8 °F 93% 29.85 in 7.0 mi WSW 6.9 mph - N/A Snow Light Snow
2:06 AM 17.6 °F 8.2 °F 15.8 °F 93% 29.85 in 7.0 mi WSW 6.9 mph - N/A Snow Light Snow
2:27 AM 17.6 °F 10.7 °F 15.8 °F 93% 29.85 in 7.0 mi WSW 4.6 mph - N/A   Overcast
2:46 AM 17.6 °F 9.3 °F 15.8 °F 93% 29.84 in 7.0 mi WSW 5.8 mph - N/A   Overcast
3:06 AM 15.8 °F 8.6 °F 15.8 °F 100% 29.84 in 10.0 mi WSW 4.6 mph - N/A   Overcast
3:27 AM 15.8 °F 6.1 °F 15.8 °F 100% 29.84 in 10.0 mi WSW 6.9 mph - N/A   Overcast
3:46 AM 17.6 °F 8.2 °F 15.8 °F 93% 29.84 in 10.0 mi West 6.9 mph - N/A   Overcast
4:06 AM 17.6 °F 9.3 °F 15.8 °F 93% 29.84 in 10.0 mi WSW 5.8 mph - N/A   Overcast
4:27 AM 15.8 °F 6.1 °F 14.0 °F 93% 29.84 in 10.0 mi WSW 6.9 mph - N/A   Overcast
4:46 AM 15.8 °F 4.2 °F 14.0 °F 93% 29.84 in 10.0 mi West 9.2 mph - N/A   Overcast
5:06 AM 15.8 °F 5.1 °F 14.0 °F 93% 29.84 in 7.0 mi West 8.1 mph - N/A Snow Light Snow
5:25 AM 15.8 °F 5.1 °F 14.0 °F 93% 29.84 in 7.0 mi WSW 8.1 mph - N/A Snow Light Snow
5:46 AM 15.8 °F 5.1 °F 14.0 °F 93% 29.84 in 10.0 mi West 8.1 mph - N/A   Overcast
6:06 AM 15.8 °F 6.1 °F 14.0 °F 93% 29.84 in 10.0 mi West 6.9 mph - N/A   Overcast
6:26 AM 15.8 °F 4.2 °F 14.0 °F 93% 29.84 in 10.0 mi West 9.2 mph - N/A   Overcast
6:46 AM 15.8 °F 6.1 °F 12.2 °F 86% 29.84 in 10.0 mi West 6.9 mph - N/A   Overcast
7:06 AM 15.8 °F 7.2 °F 12.2 °F 86% 29.84 in 10.0 mi West 5.8 mph - N/A Snow Light Snow
7:26 AM 15.8 °F 8.6 °F 12.2 °F 86% 29.85 in 10.0 mi West 4.6 mph - N/A   Overcast
7:46 AM 15.8 °F 8.6 °F 14.0 °F 93% 29.85 in 10.0 mi West 4.6 mph - N/A   Overcast
8:06 AM 17.6 °F 9.3 °F 14.0 °F 86% 29.85 in 10.0 mi West 5.8 mph - N/A   Overcast
8:26 AM 17.6 °F 10.7 °F 15.8 °F 93% 29.85 in 10.0 mi West 4.6 mph - N/A   Overcast
8:46 AM 19.4 °F 12.8 °F 15.8 °F 86% 29.85 in 7.0 mi West 4.6 mph - N/A   Overcast
9:06 AM 19.4 °F 11.5 °F 15.8 °F 86% 29.85 in 7.0 mi West 5.8 mph - N/A   Overcast
9:26 AM 19.4 °F 12.8 °F 17.6 °F 93% 29.86 in 7.0 mi WSW 4.6 mph - N/A   Overcast
9:46 AM 19.4 °F 10.4 °F 15.8 °F 86% 29.86 in 10.0 mi WSW 6.9 mph - N/A   Overcast
10:06 AM 19.4 °F 8.6 °F 15.8 °F 86% 29.86 in 10.0 mi WSW 9.2 mph - N/A   Overcast
10:26 AM 19.4 °F 11.5 °F 15.8 °F 86% 29.86 in 10.0 mi West 5.8 mph - N/A   Overcast
10:46 AM 19.4 °F 9.5 °F 15.8 °F 86% 29.86 in 7.0 mi West 8.1 mph - N/A   Overcast
11:06 AM 19.4 °F 10.4 °F 15.8 °F 86% 29.86 in 10.0 mi WSW 6.9 mph - N/A   Overcast
11:26 AM 21.2 °F 14.9 °F 15.8 °F 80% 29.86 in 10.0 mi WSW 4.6 mph - N/A   Overcast
11:46 AM 21.2 °F 13.6 °F 15.8 °F 80% 29.86 in 7.0 mi WSW 5.8 mph - N/A   Overcast
12:06 PM 21.2 °F 12.6 °F 17.6 °F 86% 29.86 in 7.0 mi West 6.9 mph - N/A   Overcast
12:26 PM 23.0 °F 13.9 °F 17.6 °F 80% 29.86 in 7.0 mi West 8.1 mph - N/A   Overcast
12:46 PM 23.0 °F 15.8 °F 17.6 °F 80% 29.86 in 7.0 mi West 5.8 mph - N/A   Overcast
1:07 PM 24.8 °F 19.1 °F 17.6 °F 74% 29.86 in 7.0 mi West 4.6 mph - N/A   Overcast
1:26 PM 24.8 °F 17.9 °F 17.6 °F 74% 29.86 in 7.0 mi West 5.8 mph - N/A   Overcast
1:46 PM 24.8 °F 19.1 °F 19.4 °F 80% 29.86 in 7.0 mi WSW 4.6 mph - N/A   Overcast
2:07 PM 24.8 °F 19.1 °F 19.4 °F 80% 29.86 in 10.0 mi WSW 4.6 mph - N/A   Overcast
2:26 PM 24.8 °F 19.1 °F 19.4 °F 80% 29.85 in 10.0 mi SW 4.6 mph - N/A   Overcast
2:46 PM 24.8 °F 19.1 °F 19.4 °F 80% 29.86 in 10.0 mi SW 4.6 mph - N/A   Overcast
3:07 PM 24.8 °F 19.1 °F 19.4 °F 80% 29.86 in 10.0 mi WSW 4.6 mph - N/A   Overcast
3:26 PM 23.0 °F 15.8 °F 19.4 °F 86% 29.86 in 10.0 mi WSW 5.8 mph - N/A   Overcast
3:46 PM 23.0 °F 15.8 °F 19.4 °F 86% 29.87 in 10.0 mi WSW 5.8 mph - N/A   Overcast
4:07 PM 23.0 °F 15.8 °F 19.4 °F 86% 29.87 in 10.0 mi SW 5.8 mph - N/A   Overcast
4:26 PM 21.2 °F 14.9 °F 17.6 °F 86% 29.87 in 10.0 mi SW 4.6 mph - N/A   Mostly Cloudy
4:46 PM 21.2 °F 14.9 °F 17.6 °F 86% 29.87 in 10.0 mi SW 4.6 mph - N/A   Scattered Clouds
5:06 PM 21.2 °F - 17.6 °F 86% 29.87 in 10.0 mi Calm Calm - N/A   Clear
5:26 PM 19.4 °F - 17.6 °F 93% 29.88 in 10.0 mi Calm Calm - N/A   Clear
5:46 PM 17.6 °F - 15.8 °F 93% 29.88 in 10.0 mi Calm Calm - N/A   Clear
6:06 PM 17.6 °F 12.3 °F 15.8 °F 93% 29.89 in 10.0 mi WSW 3.5 mph - N/A   Clear
6:46 PM 15.8 °F 10.2 °F 15.8 °F 100% 29.90 in 10.0 mi WSW 3.5 mph - N/A   Clear
7:06 PM 15.8 °F - 12.2 °F 86% 29.91 in 7.0 mi Calm Calm - N/A   Clear
7:26 PM 8.6 °F - 6.8 °F 92% 29.91 in 5.0 mi Calm Calm - N/A   Clear
7:46 PM 10.4 °F - 8.6 °F 92% 29.91 in 2.5 mi Calm Calm - N/A   Clear
8:06 PM 12.2 °F - 12.2 °F 100% 29.91 in 5.0 mi Calm Calm - N/A   Clear
8:26 PM 10.4 °F - 10.4 °F 100% 29.91 in 5.0 mi Calm Calm - N/A   Clear
8:46 PM 6.8 °F - 5.0 °F 92% 29.91 in 4.0 mi Calm Calm - N/A   Clear
9:06 PM 8.6 °F 0.1 °F 6.8 °F 92% 29.92 in 3.0 mi SSW 4.6 mph - N/A   Clear
9:26 PM 3.2 °F -4.2 °F 1.4 °F 92% 29.92 in 4.0 mi SSW 3.5 mph - N/A   Clear
9:46 PM 12.2 °F 6.1 °F 10.4 °F 92% 29.93 in 5.0 mi SW 3.5 mph - N/A   Clear
10:06 PM 10.4 °F 4.0 °F 8.6 °F 92% 29.93 in 5.0 mi SW 3.5 mph - N/A   Clear
10:46 PM 10.4 °F - 8.6 °F 92% 29.94 in 7.0 mi Calm Calm - N/A   Clear
11:06 PM 6.8 °F -0.1 °F 6.8 °F 100% 29.94 in 7.0 mi West 3.5 mph - N/A   Clear
11:26 PM 8.6 °F - 6.8 °F 92% 29.95 in 7.0 mi Calm Calm - N/A   Clear
11:46 PM 6.8 °F - 3.2 °F 85% 29.95 in 7.0 mi Calm Calm - N/A   Scattered Clouds